星链-3550 (STARLINK-3550 )

导读

STARLINK-3550是美国太空探索技术公司(SpaceX)星链(Starlink)星座中的卫星,于2022年4月29日发射。作为星链星座组网卫星,它承担着为全球提供高速互联网服务的任务,主要服务偏远地区网络覆盖,并支持航海、航空等移动场景的联网需求,助力SpaceX完成低轨宽带星座的布局。

基本信息
目录编号:
52373
目录名称:
STARLINK-3550
国际标识:
2022-045AU
轨道中心:
EARTH
卫星名称:
星链-3550
卫星全名:
星链-3550 (STARLINK-3550 )
卫星状态:
在轨 (已飞行1589 天)
发射日期:
2022-04-29 UTC
国别 :
美国 (US)
星等 :
--
轨道信息
数据来源 国际轨道数据
星历时间: 2026-09-03T22:41:06+0800
13小时前
查看轨道信息
半长轴: 6840.865km
偏心率: 0.0001428
轨道倾角: 53.160°
近地点辐角 80.708°
升交点赤经 96.599°
平近点角 279.408°
近地点: 461.751km
远地点: 463.705km
周期: 93.848分钟
每日圈数: 15.343918
详细信息
固有亮度:
5
最大亮度:
2.5
卫星平台:
Starlink v1.5
覆盖范围:
全球
运营商:
太空探索技术公司
运营商所在国:
美国
制造商(研发单位):
太空探索技术公司
制造商所在国:
美国
使用方式:
暂无
卫星简介
星链(Starlink)计划是由太空探索技术公司(SpaceX)提出的一个巨型低轨卫星互联网星座项目,计划在2019年至2024年间在太空搭建由约1.2万颗卫星组成的“星链”网络,其中1584颗将部署在地球上空550千米处的近地轨道,并从2020年开始工作。该卫星仍在工作。
2D轨道图
3D轨道图
轨道高度分析图
轨道倾角分析图
轨道综合分析图
查看轨道综合分析图